Regional Weather Roundup
Issued by NWS

Home | Current Version | Previous Version | Text Only | Print | Product List | Glossary On
Versions: 1 2 3 4 5 6 7 8 9 10 11 12 13 14 15 16 17 18 19 20 21 22 23 24 25 26 27 28 29 30 31 32 33 34 35 36 37 38 39 40 41 42 43 44 45 46 47 48 49
000
ASUS42 KKEY 240310
RWRKEY

FLORIDA REGIONAL WEATHER ROUNDUP FOR THE FLORIDA KEYS
NATIONAL WEATHER SERVICE KEY WEST FLORIDA
1100 PM EDT TUE SEP 23 2014

...SOUTH FLORIDA AND THE KEYS...

CITY           SKY/WX    TMP DP  RH WIND       PRES   REMARKS
FORT MYERS     PTCLDY    74  72  93 NE3       30.00F
SW REGIONAL AP CLEAR     75  71  87 E3        30.01S
NAPLES         CLEAR     76  71  85 CALM      30.01R
MIAMI          MOCLDY    79  72  79 NE5       30.01S
WEST KENDALL   PTCLDY    78  72  81 NE5       30.01S
HOMESTEAD      PTCLDY    77  72  86 N6        30.00S
MARATHON       PTCLDY    82  75  79 E3        29.98F
BOCA CHICA NAS MOCLDY    80  76  87 NE6       29.97F
KEY WEST INTL  LGT RAIN  80  77  90 N5        29.98S

...INTERNATIONAL WEATHER...

CITY           SKY/WX    TMP DP  RH WIND       PRES   REMARKS
NASSAU BAHAMAS PTCLDY    82  79  89 E3        30.02R HX  93
CANCUN MEXICO  CLOUDY    75  75 100 NW6       29.94R
COZUMEL MEXICO MOCLDY    77  75  94 E3        29.94R

ADJACENT COASTAL WATERS...

STATION/POSITION TIME  SKY/WX   TEMP    WIND        PRES    WAVE
                                AIR SEA DIR/SP/G            HT/PER
                 (UTC)          (F)     (DEG/KT/KT) (MB)    (FT/S)
PULASKI SHOAL LI 0300            78      30/  8/ 12 1015.3R
SAND KEY         0236            80      40/ 17/ 21 1014.8F
SOMBRERO KEY     0300            83      90/  9/ 11 1015.8F
LONG KEY         0157            82 83   80/  6/  8 1016.3R
MOLASSES REEF    0300            76 84   60/ 10/ 12 1016.2R
FOWEY ROCKS      0300            81 84   10/  9/ 11 1016.2S
Buoy 42080       NOT AVBL

$$


USA.gov is the U.S. government's official web portal to all federal, state and local government web resources and services.